Other Public Products
Issued by NWS Charleston, SC

Current Version | Previous Version | Graphics & Text | Print | Product List | Glossary On
Versions: 1 2 3 4 5 6 7 8 9 10 11 12 13 14 15 16 17 18 19 20 21 22 23 24 25 26 27 28 29 30 31 32 33 34 35 36 37 38 39 40 41 42 43 44 45 46 47 48 49 50
688 FPUS82 KCHS 251326 OPUCHS TEST...KCHS/KSAV Gateway Observations...TEST National Weather Service Charleston SC 800 AM EST SAT FEB 25 2017 NOTE: "fair" indicates few or no clouds below 12,000 feet with no significant weather and/or obstructions to visibility. SCZ050-WAZ558-NCZ071-TXZ119-213-PAZ071-DCZ001-FLZ074-172-MI076- NYZ176-178-MAZ016-IL014-TNZ027-NJZ106-GAZ044-MD014-251400- ...Gateway Observations for Charleston International... CITY SKY/WX TMP DP RH WIND PRES REMARKS Chas Airport MOSUNNY 61 60 97 SW7 29.81S FOG Seattle PTCLDY 33 27 78 SE6 30.25S WCI 28 Charlotte PTSUNNY 62 57 83 S12 29.72F Dallas DFW CLEAR 36 26 67 N9 30.19R WCI 29 Dallas Love CLEAR 37 23 56 NE6 30.21R WCI 32 Philladelphia PTSUNNY 59 55 87 SE6 29.73F Wash National PTSUNNY 62 58 86 S13 29.68F Baltimore PTSUNNY 57 57 100 SE6 29.68S Miami FOG 66 66 100 CALM 29.90S VSB 1/8 Detroit CLOUDY 39 34 82 W15 29.55R WCI 31 Newark CLOUDY 50 50 100 E3 29.75F FOG Laguardia FOG 52 51 97 S5 29.77F VSB 1/4 J F K FOG 50 50 100 SE5 29.79F VSB 1/4 Boston Logan PTSUNNY 53 53 100 S12 29.85S Ft. Lauderdale FOG 67 67 100 CALM 29.90R VSB 1/4 Chicago O`Hare MOCLDY 23 15 71 NW16G24 29.74R WCI 10 Chicago Midway FLURRIES 25 15 66 W15G23 29.74R WCI 13 Houston Bush CLEAR 47 34 60 N10 30.11R Houston Hobby CLEAR 50 33 52 N13 30.08R Nashville MOCLDY 43 26 51 NW14G22 29.93R Atlanta MOCLDY 60 54 80 NW17 29.81R $$ GAZ044-118-TXZ119-213-NCZ071-DCZ001-MDZ014-506-PAZ021-071-NJZ106- NYZ176-178-MAZ106-OHZ011-021-055-MIZ076-KYZ091-ILZ014-INZ047- MNZ060-ONZ431-251400- ...Gateway Observations for Savannah International... CITY SKY/WX TMP DP RH WIND PRES REMARKS Savannah Arpt PTSUNNY 64 61 90 SW7 29.85R Atlanta MOCLDY 60 54 80 NW17 29.81R Charlotte PTSUNNY 62 57 83 S12 29.72F Dallas DFW CLEAR 36 26 67 N9 30.19R WCI 29 Houston Bush CLEAR 47 34 60 N10 30.11R Wash National PTSUNNY 62 58 86 S13 29.68F Wash Dulles PTSUNNY 61 56 83 S10 29.66F Baltimore PTSUNNY 57 57 100 SE6 29.68S Philadelphia PTSUNNY 59 55 87 SE6 29.73F Newark CLOUDY 50 50 100 E3 29.75F FOG Laguardia FOG 52 51 97 S5 29.77F VSB 1/4 J F K FOG 50 50 100 SE5 29.79F VSB 1/4 Boston PTSUNNY 53 53 100 S12 29.85S Pittsburg CLOUDY 49 48 97 W9 29.56R Akron CLOUDY 43 34 70 W9 29.59R Cleveland CLOUDY 44 33 65 SW10 29.60R Cincinnati CLOUDY 37 26 64 W17G33 29.74R WCI 27 Columbus PTCLDY 40 36 84 SW6 29.67S WCI 36 Detroit CLOUDY 39 34 82 W15 29.55R WCI 31 Chicago O`Hare MOCLDY 23 15 71 NW16G24 29.74R WCI 10 Minneapolis CLEAR 14 3 61 NW15G23 29.93R WCI -1 Indianapolis CLOUDY 29 24 82 W28G36 29.79R WCI 14 Toronto Canada LGT RAIN 45 43 93 S6 29.42 FOG $$

USA.gov is the U.S. government's official web portal to all federal, state and local government web resources and services.